1483862400.28,2862,3.13,72558.0,-15.27,-47.93,-48.83,0,*51
1483862401.49,2863,3.13,72562.3,-15.25,-47.85,-48.63,0,*5B
1483862402.72,2864,3.19,72562.5,-15.27,-47.99,-48.83,0,*5D
1483862403.94,2865,3.13,72566.8,-15.25,-47.85,-48.63,0,*5D
1483862405.19,2866,3.13,72570.5,-15.27,-47.51,-48.27,0,*55
1483862406.43,2867,3.19,72574.3,-15.23,-47.93,-48.83,0,*50
1483862407.66,2868,3.13,72568.3,-15.25,-47.23,-47.99,0,*56
1483862408.9,2869,3.13,72570.0,-15.25,-47.45,-48.41,0,*5D
1483862410.11,2870,3.13,72572.5,-15.25,-47.99,-48.83,0,*5A
1483862411.33,2871,3.13,72570.0,-15.27,-47.57,-48.49,0,*5D
1483862412.57,2872,3.13,72574.3,-15.25,-47.51,-48.35,0,*51
1483862413.83,2873,3.13,72576.5,-15.25,-47.45,-48.35,0,*55
1483862415.07,2874,3.19,72582.3,-15.25,-47.09,-48.13,0,*5E
1483862416.28,2875,3.13,72584.0,-15.23,-47.31,-48.21,0,*53
1483862417.57,2876,3.13,72572.0,-15.21,-47.23,-47.93,0,*57
1483862418.78,2877,3.13,72572.0,-15.23,-47.51,-48.21,0,*57
1483862420.04,2878,3.13,72566.8,-15.23,-47.23,-48.13,0,*5C
1483862421.25,2879,3.13,72554.3,-15.23,-47.51,-48.41,0,*5F
1483862422.48,2880,3.13,72550.8,-15.23,-48.13,-48.97,0,*5B
1483862423.77,2881,3.13,72552.3,-15.21,-47.93,-48.91,0,*59
1483862425.03,2882,3.13,72550.3,-15.21,-48.13,-48.97,0,*5B
1483862426.24,2883,3.13,72536.3,-15.23,-47.99,-48.97,0,*55
1483862427.44,2884,3.13,72544.8,-15.23,-47.99,-48.97,0,*52
1483862428.74,2885,3.13,72546.3,-15.21,-47.93,-48.77,0,*55
1483862430.0,2886,3.13,72554.5,-15.21,-48.35,-49.33,0,*54
1483862431.26,2887,3.19,72566.0,-15.21,-48.27,-48.97,0,*59
1483862432.54,2888,3.13,72564.0,-15.21,-47.93,-48.91,0,*50
1483862433.76,2889,3.19,72542.3,-15.23,-47.85,-48.63,0,*59
1483862435.05,2890,3.13,72526.0,-15.21,-48.13,-48.91,0,*5E
1483862436.28,2891,3.13,72538.3,-15.23,-48.13,-48.97,0,*5B
1483862437.48,2892,3.13,72550.3,-15.23,-48.83,-49.75,0,*5C
1483862438.74,2893,3.13,72550.3,-15.23,-48.77,-49.47,0,*57
1483862439.95,2894,3.13,72556.3,-15.23,-48.41,-49.25,0,*51
1483862441.23,2895,3.13,72548.0,-15.21,-48.35,-49.39,0,*5C
1483862442.47,2896,3.13,72538.8,-15.25,-48.13,-48.97,0,*5A
1483862443.69,2897,3.13,72546.3,-15.27,-48.49,-49.25,0,*5E
1483862444.92,2898,3.13,72560.5,-15.25,-48.35,-49.25,0,*58
1483862446.16,2899,3.19,72552.8,-15.25,-47.99,-48.77,0,*56
1483862447.39,2900,3.19,72554.0,-15.25,-47.71,-48.63,0,*54
1483862448.6,2901,3.13,72556.8,-15.25,-47.85,-48.83,0,*50
1483862449.86,2902,3.13,72556.3,-15.23,-47.71,-48.77,0,*55
1483862451.09,2903,3.13,72562.0,-15.23,-47.71,-48.41,0,*51
1483862452.34,2904,3.13,72562.0,-15.23,-47.71,-48.77,0,*53
1483862453.57,2905,3.13,72556.5,-15.23,-47.65,-48.35,0,*51
1483862454.84,2906,3.13,72548.0,-15.21,-47.85,-48.77,0,*58
1483862456.14,2907,3.13,72548.5,-15.21,-48.13,-49.11,0,*58
1483862457.35,2908,3.19,72558.0,-15.23,-48.21,-49.05,0,*51
1483862458.59,2909,3.13,72554.0,-15.21,-48.07,-48.97,0,*5C
1483862459.86,2910,3.19,72558.5,-15.23,-47.79,-48.69,0,*51
1483862461.15,2911,3.13,72558.5,-15.21,-47.45,-48.27,0,*57
1483862462.45,2912,3.13,72556.5,-15.21,-47.45,-48.35,0,*57
1483862463.71,2913,3.13,72554.3,-15.21,-47.65,-48.13,0,*50
1483862464.98,2914,3.19,72560.3,-15.21,-47.37,-48.07,0,*55
1483862466.26,2915,3.19,72558.8,-15.21,-48.07,-49.11,0,*5E
1483862467.52,2916,3.13,72560.5,-15.21,-47.79,-48.49,0,*57
1483862468.78,2917,3.19,72564.3,-15.19,-47.79,-48.69,0,*5F
1483862470.01,2918,3.19,72564.8,-15.17,-47.57,-48.49,0,*50
1483862471.25,2919,3.13,72572.0,-15.19,-47.79,-48.55,0,*5E
1483862472.55,2920,3.13,72570.3,-15.21,-47.93,-48.77,0,*5B
1483862473.78,2921,3.13,72556.8,-15.19,-47.65,-48.35,0,*5E
1483862475.03,2922,3.13,72560.5,-15.19,-47.23,-47.93,0,*5C
1483862476.23,2923,3.19,72564.8,-15.19,-47.65,-48.49,0,*57
1483862477.47,2924,3.19,72558.5,-15.19,-48.27,-49.33,0,*55
1483862478.74,2925,3.13,72558.3,-15.19,-48.13,-49.11,0,*53
1483862479.99,2926,3.19,72564.0,-15.19,-48.27,-49.19,0,*5F
1483862481.23,2927,3.13,72562.0,-15.19,-48.07,-48.91,0,*5D
1483862482.47,2928,3.13,72568.5,-15.19,-47.85,-48.77,0,*5F
1483862483.72,2929,3.19,72560.8,-15.17,-47.71,-48.41,0,*5E
1483862484.96,2930,3.19,72556.5,-15.19,-47.85,-48.77,0,*56
1483862486.22,2931,3.13,72558.3,-15.19,-48.13,-48.91,0,*5F
1483862487.45,2932,3.19,72560.3,-15.19,-48.55,-49.19,0,*5F
1483862488.71,2933,3.19,72560.8,-15.19,-48.13,-49.11,0,*54
1483862489.95,2934,3.13,72558.3,-15.19,-47.79,-48.49,0,*5C
1483862491.21,2935,3.13,72562.3,-15.17,-47.85,-48.91,0,*55
1483862492.47,2936,3.19,72564.3,-15.19,-48.13,-48.91,0,*58
1483862493.7,2937,3.19,72566.3,-15.19,-48.13,-48.97,0,*5F
1483862494.93,2938,3.19,72560.8,-15.19,-47.93,-48.97,0,*57
1483862496.16,2939,3.13,72564.8,-15.17,-47.99,-48.83,0,*57
1483862497.39,2940,3.13,72560.8,-15.17,-48.41,-49.25,0,*5E
1483862498.65,2941,3.13,72560.5,-15.19,-48.27,-49.11,0,*56
1483862499.91,2942,3.19,72564.5,-15.17,-47.37,-47.99,0,*5B
1483862501.17,2943,3.13,72558.8,-15.17,-47.51,-48.27,0,*50
1483862502.41,2944,3.19,72564.3,-15.17,-48.07,-48.83,0,*55
1483862503.66,2945,3.13,72562.8,-15.17,-47.71,-48.49,0,*5C
1483862504.92,2946,3.13,72554.5,-15.17,-47.79,-48.41,0,*5F
1483862506.16,2947,3.19,72560.5,-15.15,-47.79,-48.63,0,*5C
1483862507.36,2948,3.13,72554.5,-15.15,-47.57,-48.49,0,*57
1483862508.58,2949,3.13,72554.3,-15.15,-47.31,-48.07,0,*5C
1483862509.85,2950,3.13,72548.0,-15.13,-47.71,-48.55,0,*51
1483862511.09,2951,3.13,72552.5,-15.15,-47.85,-48.69,0,*52
1483862512.3,2952,3.13,72556.5,-15.15,-48.49,-49.33,0,*50
1483862513.54,2953,3.19,72560.0,-15.15,-48.27,-49.33,0,*59
1483862514.8,2954,3.19,72560.5,-15.17,-48.21,-49.11,0,*5A
1483862516.06,2955,3.19,72564.3,-15.17,-47.99,-48.91,0,*5E
1483862517.32,2956,3.19,72568.5,-15.15,-48.13,-48.91,0,*52
1483862518.55,2957,3.19,72570.5,-15.17,-47.85,-48.83,0,*52
1483862519.81,2958,3.19,72568.8,-15.19,-47.93,-48.91,0,*57
1483862521.05,2959,3.13,72558.0,-15.17,-48.07,-48.83,0,*59
1483862522.28,2960,3.13,72554.8,-15.13,-47.99,-49.25,0,*52
1483862523.52,2961,3.19,72556.8,-15.17,-48.49,-49.33,0,*52
1483862524.78,2962,3.19,72546.0,-15.17,-47.99,-48.91,0,*5A
1483862526.04,2963,3.19,72546.8,-15.15,-48.27,-49.11,0,*5A
1483862527.3,2964,3.13,72542.8,-15.15,-48.69,-49.53,0,*51
1483862528.52,2965,3.13,72550.0,-15.17,-48.83,-49.75,0,*52
1483862529.79,2966,3.19,72546.5,-15.17,-48.07,-49.11,0,*5F
1483862531.05,2967,3.13,72542.5,-15.17,-47.51,-48.27,0,*56
1483862532.3,2968,3.13,72534.3,-15.19,-48.27,-49.19,0,*55
1483862533.53,2969,3.13,72544.5,-15.19,-49.33,-50.11,0,*50
1483862534.77,2970,3.13,72552.0,-15.17,-48.21,-48.83,0,*56
1483862535.98,2971,3.19,72558.8,-15.19,-48.07,-48.97,0,*58
1483862537.2,2972,3.13,72552.8,-15.15,-47.71,-48.49,0,*5A
1483862538.47,2973,3.19,72560.8,-15.17,-47.85,-48.69,0,*50
1483862539.7,2974,3.19,72560.3,-15.17,-48.21,-49.05,0,*5D
1483862540.96,2975,3.13,72560.5,-15.17,-48.27,-49.05,0,*5A
1483862542.2,2976,3.19,72564.8,-15.15,-48.07,-48.91,0,*55
1483862543.46,2977,3.19,72564.0,-15.17,-47.79,-48.63,0,*5D
1483862544.69,2978,3.19,72566.8,-15.17,-47.57,-48.49,0,*56
1483862545.98,2979,3.19,72564.3,-15.17,-47.79,-48.69,0,*59
1483862547.21,2980,3.19,72562.8,-15.17,-47.99,-48.83,0,*55
1483862548.47,2981,3.13,72560.5,-15.13,-47.71,-48.63,0,*58
1483862549.69,2982,3.19,72566.0,-15.15,-48.07,-48.83,0,*5D
1483862550.9,2983,3.19,72558.3,-15.15,-48.21,-49.25,0,*55
1483862552.13,2984,3.19,72560.3,-15.15,-47.79,-48.49,0,*5B
1483862553.39,2985,3.13,72560.0,-15.13,-47.71,-48.63,0,*5C
1483862554.6,2986,3.19,72560.8,-15.15,-47.99,-48.83,0,*51
1483862555.81,2987,3.19,72560.8,-15.15,-47.57,-48.41,0,*5C
1483862557.1,2988,3.13,72558.5,-15.13,-47.45,-48.35,0,*55
1483862558.31,2989,3.13,72552.8,-15.15,-48.41,-49.33,0,*5E
1483862559.57,2990,3.19,72552.5,-15.15,-48.69,-49.53,0,*5A
1483862560.83,2991,3.19,72552.5,-15.15,-49.11,-50.17,0,*5D
1483862562.09,2992,3.13,72550.0,-15.17,-49.25,-50.03,0,*5E
1483862563.34,2993,3.19,72558.3,-15.17,-48.63,-49.53,0,*51
1483862564.59,2994,3.19,72552.8,-15.17,-48.83,-49.61,0,*59
1483862565.8,2995,3.13,72552.3,-15.19,-48.97,-49.89,0,*55
1483862567.04,2996,3.19,72554.0,-15.17,-49.05,-49.97,0,*5D
1483862568.33,2997,3.19,72554.0,-15.17,-49.53,-50.61,0,*5E
1483862569.59,2998,3.13,72556.0,-15.21,-48.49,-49.39,0,*5B
1483862570.85,2999,3.13,72554.8,-15.19,-48.77,-49.61,0,*51
1483862572.1,3000,3.19,72560.3,-15.17,-48.63,-49.53,0,*53
1483862573.39,3001,3.19,72568.8,-15.21,-48.27,-49.19,0,*59
1483862574.65,3002,3.13,72562.3,-15.19,-48.13,-48.91,0,*57
1483862575.9,3003,3.19,72562.5,-15.19,-48.27,-49.19,0,*50
1483862577.13,3004,3.19,72560.8,-15.19,-48.55,-49.47,0,*59
1483862578.39,3005,3.13,72558.5,-15.19,-48.69,-49.61,0,*53
1483862579.65,3006,3.13,72558.0,-15.19,-48.13,-49.11,0,*5A
1483862580.89,3007,3.13,72558.8,-15.19,-48.13,-48.97,0,*54
1483862582.12,3008,3.19,72558.0,-15.19,-48.13,-48.97,0,*5B
1483862583.38,3009,3.13,72558.5,-15.19,-49.11,-50.03,0,*5D
1483862584.67,3010,3.13,72548.8,-15.21,-48.69,-49.47,0,*58
1483862585.93,3011,3.19,72562.3,-15.21,-48.13,-48.97,0,*58
1483862587.17,3012,3.13,72560.3,-15.21,-48.07,-48.97,0,*5E
1483862588.41,3013,3.19,72556.5,-15.19,-48.07,-48.91,0,*52
1483862589.62,3014,3.13,72552.8,-15.23,-47.65,-48.55,0,*5F
1483862590.89,3015,3.13,72548.0,-15.19,-47.45,-48.35,0,*53
1483862592.13,3016,3.19,72562.5,-15.19,-47.85,-48.77,0,*5A
1483862593.37,3017,3.19,72560.0,-15.19,-47.79,-48.55,0,*58
1483862594.61,3018,3.19,72562.8,-15.19,-47.79,-48.55,0,*57
1483862595.88,3019,3.19,72562.8,-15.17,-47.85,-48.69,0,*54
1483862597.11,3020,3.13,72564.3,-15.19,-48.13,-48.97,0,*51
1483862598.37,3021,3.19,72568.8,-15.17,-48.07,-48.91,0,*5D
1483862599.63,3022,3.19,72570.8,-15.19,-47.93,-48.69,0,*55
1483862600.92,3023,3.19,72570.3,-15.17,-47.79,-48.69,0,*5E
1483862602.15,3024,3.19,72572.8,-15.17,-47.57,-48.41,0,*5F
1483862603.41,3025,3.19,72576.8,-15.17,-47.79,-48.49,0,*5A
1483862604.67,3026,3.13,72576.3,-15.17,-47.79,-48.63,0,*51
1483862605.91,3027,3.19,72576.8,-15.15,-47.37,-48.41,0,*58
1483862607.14,3028,3.19,72570.8,-15.17,-47.17,-47.85,0,*50
1483862608.37,3029,3.19,72548.0,-15.17,-47.57,-48.49,0,*5A
1483862609.63,3030,3.13,72542.5,-15.13,-47.71,-48.63,0,*5A
1483862610.87,3031,3.19,72552.8,-15.15,-47.79,-48.63,0,*55
1483862612.13,3032,3.19,72566.8,-15.15,-48.69,-49.61,0,*5B
1483862613.36,3033,3.13,72564.0,-15.15,-48.49,-49.53,0,*59
1483862614.6,3034,3.13,72560.5,-15.15,-47.79,-48.63,0,*50
1483862615.86,3035,3.13,72552.8,-15.13,-47.45,-48.21,0,*5E
1483862617.1,3036,3.19,72556.5,-15.13,-47.31,-47.99,0,*52
1483862618.39,3037,3.13,72548.8,-15.13,-47.93,-48.77,0,*54
1483862619.62,3038,3.19,72550.0,-15.15,-48.63,-49.61,0,*5B
1483862620.86,3039,3.13,72548.3,-15.15,-49.39,-50.39,0,*51
1483862622.1,3040,3.13,72562.8,-15.15,-49.53,-50.67,0,*58
1483862623.34,3041,3.19,72562.3,-15.15,-49.53,-50.39,0,*52
1483862624.57,3042,3.19,72566.8,-15.19,-49.47,-50.47,0,*51
1483862625.83,3043,3.19,72560.8,-15.17,-49.25,-50.25,0,*5E
1483862627.06,3044,3.19,72570.3,-15.19,-48.77,-49.67,0,*5F
1483862628.32,3045,3.19,72574.5,-15.17,-48.49,-49.39,0,*56
1483862629.55,3046,3.19,72572.0,-15.19,-48.55,-49.61,0,*5B
1483862630.8,3047,3.19,72576.3,-15.19,-48.77,-49.47,0,*5E
1483862632.08,3048,3.19,72564.8,-15.21,-48.35,-49.19,0,*57
1483862633.32,3049,3.19,72564.5,-15.19,-48.55,-49.39,0,*59
1483862634.58,3050,3.13,72556.8,-15.19,-48.69,-49.61,0,*53
1483862635.82,3051,3.19,72546.8,-15.19,-48.55,-49.39,0,*50
1483862637.08,3052,3.19,72548.8,-15.19,-48.69,-49.47,0,*55
1483862638.31,3053,3.19,72540.3,-15.23,-48.55,-49.39,0,*5B
1483862639.55,3054,3.19,72540.3,-15.21,-48.97,-49.81,0,*53
1483862640.84,3055,3.19,72544.8,-15.21,-49.11,-50.11,0,*5C
1483862642.08,3056,3.19,72554.5,-15.21,-48.49,-49.33,0,*5B
1483862643.36,3057,3.13,72530.8,-15.21,-48.35,-49.19,0,*59
1483862644.6,3058,3.19,72540.5,-15.23,-48.77,-49.75,0,*58
1483862645.89,3059,3.19,72544.0,-15.21,-49.47,-50.33,0,*53
1483862647.12,3060,3.19,72544.5,-15.23,-49.25,-50.11,0,*5F
1483862648.33,3061,3.19,72556.8,-15.23,-49.05,-49.75,0,*56
1483862649.53,3062,3.19,72552.3,-15.23,-48.63,-49.25,0,*51
1483862650.76,3063,3.19,72556.8,-15.23,-47.93,-48.97,0,*58
1483862652.0,3064,3.19,72558.5,-15.23,-48.21,-49.19,0,*5E
1483862653.2,3065,3.13,72558.0,-15.23,-47.99,-48.97,0,*54
1483862654.46,3066,3.19,72562.3,-15.21,-47.79,-48.49,0,*58
1483862655.71,3067,3.19,72562.0,-15.21,-47.65,-48.55,0,*59
1483862656.97,3068,3.19,72558.8,-15.21,-47.65,-48.27,0,*53
1483862658.26,3069,3.19,72558.8,-15.21,-47.37,-48.27,0,*55
1483862659.54,3070,3.19,72558.0,-15.21,-48.35,-49.19,0,*5C
1483862660.8,3071,3.19,72556.3,-15.21,-48.55,-49.47,0,*50
1483862662.07,3072,3.13,72550.5,-15.21,-48.07,-48.91,0,*5E
1483862663.3,3073,3.19,72552.0,-15.21,-47.57,-48.49,0,*50
1483862664.56,3074,3.19,72562.0,-15.21,-48.55,-49.47,0,*55
1483862665.86,3075,3.13,72558.5,-15.21,-48.69,-49.47,0,*5B
1483862667.15,3076,3.19,72564.8,-15.21,-48.13,-49.11,0,*56
1483862668.44,3077,3.19,72566.8,-15.21,-47.93,-48.77,0,*51
1483862669.72,3078,3.19,72562.0,-15.21,-47.79,-48.55,0,*5A
1483862671.01,3079,3.19,72554.8,-15.21,-48.27,-49.11,0,*5E
1483862672.24,3080,3.13,72558.0,-15.19,-48.35,-49.33,0,*50
1483862673.49,3081,3.13,72552.5,-15.19,-48.91,-49.61,0,*58
1483862674.75,3082,3.19,72544.5,-15.19,-49.47,-50.25,0,*59
1483862676.04,3083,3.19,72536.0,-15.21,-49.39,-50.25,0,*5A
1483862677.28,3084,3.19,72524.5,-15.23,-49.19,-49.89,0,*53
1483862678.49,3085,3.19,72520.5,-15.23,-48.21,-49.05,0,*5C
1483862679.76,3086,3.19,72536.0,-15.21,-47.65,-48.35,0,*50
1483862680.99,3087,3.19,72534.3,-15.21,-48.07,-48.97,0,*52
1483862682.26,3088,3.19,72534.3,-15.21,-49.11,-49.89,0,*55
1483862683.5,3089,3.19,72544.0,-15.23,-48.41,-49.39,0,*59
1483862684.76,3090,3.19,72552.5,-15.23,-48.13,-49.11,0,*5C
1483862686.0,3091,3.19,72564.5,-15.23,-48.55,-49.47,0,*5C
1483862687.23,3092,3.19,72566.3,-15.23,-48.63,-49.47,0,*5A
1483862688.47,3093,3.19,72560.3,-15.21,-48.49,-49.33,0,*52
1483862689.74,3094,3.19,72562.5,-15.21,-48.07,-48.91,0,*56
1483862690.99,3095,3.19,72560.8,-15.23,-48.35,-49.39,0,*57
1483862692.22,3096,3.19,72570.5,-15.23,-48.41,-49.19,0,*55
1483862693.46,3097,3.19,72570.5,-15.23,-48.41,-49.39,0,*56
1483862694.69,3098,3.19,72572.5,-15.23,-48.35,-49.25,0,*57
1483862695.9,3099,3.19,72574.3,-15.23,-48.21,-49.05,0,*51
1483862697.17,3100,3.19,72572.8,-15.21,-47.85,-48.69,0,*58
1483862698.39,3101,3.19,72578.5,-15.23,-47.85,-48.55,0,*54
1483862699.62,3102,3.19,72574.0,-15.23,-47.51,-48.35,0,*58
1483862700.85,3103,3.19,72570.8,-15.21,-47.65,-48.49,0,*57
1483862702.12,3104,3.19,72574.0,-15.19,-47.93,-48.77,0,*5F
1483862703.35,3105,3.19,72572.8,-15.19,-48.55,-49.39,0,*50
1483862704.59,3106,3.19,72544.5,-15.21,-48.07,-48.97,0,*5A
1483862705.82,3107,3.19,72522.8,-15.21,-47.65,-48.49,0,*53
1483862707.07,3108,3.19,72540.8,-15.21,-47.65,-48.55,0,*51
1483862708.36,3109,3.19,72548.5,-15.21,-47.45,-48.27,0,*57
1483862709.6,3110,3.19,72544.5,-15.19,-47.85,-48.77,0,*5D
1483862710.84,3111,3.19,72560.5,-15.19,-48.07,-48.91,0,*51
1483862712.08,3112,3.19,72556.3,-15.17,-48.07,-48.83,0,*5F
1483862713.34,3113,3.19,72562.8,-15.19,-48.69,-49.47,0,*51
1483862714.55,3114,3.19,72564.3,-15.19,-48.97,-49.81,0,*5D
1483862715.83,3115,3.19,72554.5,-15.21,-47.93,-48.91,0,*5C
1483862717.09,3116,3.19,72562.3,-15.21,-48.49,-49.19,0,*56
1483862718.36,3117,3.19,72560.3,-15.21,-48.07,-48.91,0,*5C
1483862719.62,3118,3.19,72566.0,-15.19,-47.93,-48.69,0,*5D
1483862720.84,3119,3.19,72564.3,-15.19,-47.57,-48.55,0,*5B
1483862722.07,3120,3.19,72570.8,-15.17,-47.51,-48.41,0,*5C
1483862723.31,3121,3.19,72568.0,-15.17,-47.31,-48.07,0,*59
1483862724.57,3122,3.19,72564.5,-15.19,-47.23,-48.13,0,*52
1483862725.84,3123,3.19,72568.8,-15.19,-47.45,-48.13,0,*53
1483862727.09,3124,3.19,72570.5,-15.17,-47.71,-48.49,0,*52
1483862728.35,3125,3.19,72566.5,-15.17,-47.51,-48.27,0,*59
1483862729.59,3126,3.13,72546.0,-15.17,-48.07,-49.05,0,*57
1483862730.85,3127,3.19,72552.3,-15.17,-48.49,-49.39,0,*53
1483862732.13,3128,3.19,72562.3,-15.17,-48.27,-49.11,0,*5E
1483862733.36,3129,3.19,72560.3,-15.17,-49.05,-49.75,0,*5C
1483862734.62,3130,3.19,72564.3,-15.17,-48.91,-49.97,0,*54
1483862735.89,3131,3.19,72576.5,-15.19,-48.69,-49.39,0,*58
1483862737.13,3132,3.19,72574.5,-15.19,-47.57,-48.35,0,*54
1483862738.41,3133,3.19,72568.3,-15.17,-47.79,-48.69,0,*5E
1483862739.65,3134,3.19,72564.3,-15.17,-47.99,-48.83,0,*53
1483862740.9,3135,3.19,72552.8,-15.19,-48.27,-49.19,0,*54
1483862742.14,3136,3.19,72548.0,-15.19,-48.49,-49.39,0,*5D
1483862743.37,3137,3.19,72546.8,-15.19,-48.55,-49.39,0,*51
1483862744.63,3138,3.19,72542.5,-15.19,-48.69,-49.61,0,*5C
1483862745.87,3139,3.13,72540.3,-15.19,-48.07,-48.91,0,*5B
1483862747.08,3140,3.19,72552.8,-15.19,-48.07,-48.97,0,*53
1483862748.3,3141,3.19,72552.0,-15.19,-48.49,-49.53,0,*51
1483862749.54,3142,3.19,72546.0,-15.19,-48.13,-48.97,0,*54
1483862750.77,3143,3.19,72540.8,-15.17,-47.99,-49.05,0,*5C
1483862752.0,3144,3.19,72532.0,-15.17,-47.57,-48.49,0,*50
1483862753.27,3145,3.19,72546.8,-15.19,-47.79,-48.69,0,*51
1483862754.51,3146,3.19,72558.5,-15.17,-47.71,-48.49,0,*56
1483862755.75,3147,3.19,72552.0,-15.17,-47.85,-48.83,0,*5A
1483862757.02,3148,3.19,72548.8,-15.13,-47.31,-48.35,0,*53
1483862758.27,3149,3.19,72552.5,-15.13,-47.31,-48.55,0,*54
1483862759.53,3150,3.19,72552.0,-15.15,-47.79,-48.69,0,*59
1483862760.79,3151,3.19,72550.5,-15.15,-48.27,-49.11,0,*52
1483862761.99,3152,3.19,72552.3,-15.15,-47.57,-48.49,0,*55
1483862763.23,3153,3.19,72544.3,-15.15,-47.79,-48.41,0,*50
1483862764.49,3154,3.19,72554.8,-15.13,-47.51,-48.35,0,*58
1483862765.78,3155,3.19,72572.3,-15.13,-47.45,-48.13,0,*58
1483862767.05,3156,3.19,72556.8,-15.13,-47.31,-48.35,0,*5C
1483862768.28,3157,3.19,72560.5,-15.15,-47.51,-48.27,0,*5E
1483862769.55,3158,3.19,72562.3,-15.13,-47.45,-48.41,0,*52
1483862770.81,3159,3.19,72560.8,-15.09,-47.71,-48.55,0,*5A
1483862772.05,3160,3.19,72560.8,-15.09,-47.99,-48.83,0,*5D
1483862773.31,3161,3.19,72566.0,-15.13,-48.35,-49.33,0,*54
1483862774.57,3162,3.19,72566.8,-15.13,-48.35,-49.05,0,*52
1483862775.81,3163,3.19,72572.0,-15.13,-47.31,-48.21,0,*5F
1483862777.07,3164,3.19,72568.8,-15.13,-47.79,-48.63,0,*52
1483862778.33,3165,3.19,72578.3,-15.13,-48.13,-48.97,0,*5B
1483862779.57,3166,3.19,72578.5,-15.13,-48.55,-49.25,0,*52
1483862780.8,3167,3.19,72572.5,-15.13,-47.99,-48.97,0,*54
1483862782.06,3168,3.19,72578.5,-15.09,-48.21,-49.19,0,*5B
1483862783.35,3169,3.19,72568.3,-15.13,-47.93,-48.77,0,*5E
1483862784.64,3170,3.19,72584.8,-15.13,-47.79,-48.77,0,*52
1483862785.87,3171,3.19,72586.5,-15.13,-47.99,-48.83,0,*56
1483862787.14,3172,3.19,72580.0,-15.13,-47.45,-48.21,0,*5C
1483862788.38,3173,3.19,72574.3,-15.13,-47.51,-48.41,0,*5E
1483862789.64,3174,3.19,72572.3,-15.13,-47.51,-48.35,0,*5A
1483862790.93,3175,3.19,72588.3,-15.09,-47.93,-48.77,0,*58
1483862792.2,3176,3.19,72582.8,-15.09,-48.35,-49.19,0,*51
1483862793.47,3177,3.19,72584.0,-15.09,-48.13,-49.05,0,*59
1483862794.71,3178,3.19,72586.3,-15.09,-48.21,-49.05,0,*57
1483862795.96,3179,3.19,72568.8,-15.09,-48.35,-49.25,0,*51
1483862797.19,3180,3.19,72560.5,-15.09,-48.97,-49.75,0,*5A
1483862798.43,3181,3.19,72566.3,-15.13,-48.55,-49.33,0,*5C
1483862799.63,3182,3.19,72570.8,-15.15,-48.83,-49.75,0,*50
1483862800.89,3183,3.19,72564.8,-15.13,-48.41,-49.53,0,*5D
1483862802.12,3184,3.19,72566.5,-15.13,-48.41,-49.25,0,*5B
1483862803.33,3185,3.19,72568.0,-15.15,-48.83,-49.81,0,*5C
1483862804.57,3186,3.19,72562.8,-15.15,-48.91,-49.81,0,*5C
1483862805.77,3187,3.19,72550.3,-15.15,-48.83,-49.75,0,*55
1483862807.0,3188,3.19,72550.8,-15.15,-48.07,-48.91,0,*5D
1483862808.24,3189,3.19,72554.5,-15.15,-49.39,-50.47,0,*52
1483862809.44,3190,3.19,72552.5,-15.15,-48.83,-49.75,0,*53
1483862810.73,3191,3.19,72550.5,-15.17,-49.11,-50.17,0,*56
1483862811.97,3192,3.19,72548.3,-15.17,-49.05,-49.97,0,*50
1483862813.26,3193,3.19,72542.3,-15.17,-49.53,-50.61,0,*53
1483862814.51,3194,3.19,72544.0,-15.19,-49.61,-50.53,0,*5A
1483862815.78,3195,3.19,72540.3,-15.19,-49.19,-50.33,0,*52
1483862817.07,3196,3.19,72542.8,-15.21,-48.69,-49.19,0,*5C
1483862818.36,3197,3.19,72528.8,-15.21,-48.69,-49.47,0,*56
1483862819.65,3198,3.19,72532.3,-15.21,-48.35,-49.39,0,*59
1483862820.94,3199,3.19,72546.8,-15.21,-48.13,-48.91,0,*5F
1483862822.2,3200,3.19,72526.0,-15.21,-48.13,-48.97,0,*5A
1483862823.44,3201,3.19,72536.0,-15.19,-48.55,-49.39,0,*57
1483862824.7,3202,3.19,72544.0,-15.19,-49.11,-50.03,0,*54
1483862825.95,3203,3.19,72552.3,-15.19,-48.35,-49.19,0,*51
1483862827.22,3204,3.19,72536.0,-15.21,-47.85,-48.77,0,*50
1483862828.44,3205,3.19,72524.0,-15.19,-48.27,-48.97,0,*53
1483862829.68,3206,3.19,72528.3,-15.21,-48.55,-49.67,0,*50
1483862830.92,3207,3.19,72546.5,-15.21,-48.97,-49.81,0,*57
1483862832.21,3208,3.19,72532.5,-15.21,-48.13,-48.91,0,*54
1483862833.44,3209,3.19,72542.0,-15.19,-48.49,-49.39,0,*52
1483862834.72,3210,3.19,72538.8,-15.21,-48.35,-49.19,0,*58
1483862836.01,3211,3.19,72522.8,-15.21,-48.27,-49.11,0,*52
1483862837.25,3212,3.19,72514.8,-15.21,-48.07,-48.97,0,*5C
1483862838.49,3213,3.19,72536.0,-15.21,-48.97,-49.81,0,*52
1483862839.78,3214,3.19,72540.3,-15.21,-48.27,-49.11,0,*57
1483862841.08,3215,3.19,72538.3,-15.21,-48.13,-49.11,0,*51
1483862842.36,3216,3.19,72544.0,-15.21,-48.27,-49.19,0,*5D
1483862843.65,3217,3.19,72554.5,-15.21,-47.93,-48.77,0,*55
1483862844.92,3218,3.19,72558.0,-15.21,-48.07,-48.91,0,*50
1483862846.21,3219,3.19,72556.8,-15.21,-47.93,-48.77,0,*5B
1483862847.47,3220,3.19,72558.5,-15.17,-47.57,-48.69,0,*53
1483862848.71,3221,3.19,72556.0,-15.17,-47.31,-48.21,0,*5E
1483862849.95,3222,3.19,72562.8,-15.19,-47.03,-47.85,0,*53
1483862851.19,3223,3.19,72566.0,-15.17,-47.31,-47.99,0,*50
1483862852.42,3224,3.19,72562.5,-15.17,-47.51,-48.41,0,*5B
1483862853.71,3225,3.19,72556.5,-15.17,-47.37,-48.27,0,*5A
1483862854.97,3226,3.19,72564.8,-15.13,-47.09,-47.79,0,*54
1483862856.19,3227,3.19,72568.5,-15.15,-47.31,-47.85,0,*5B
1483862857.4,3228,3.19,72566.8,-15.15,-47.57,-48.41,0,*53
1483862858.63,3229,3.19,72568.8,-15.13,-47.51,-48.41,0,*52
1483862859.91,3230,3.19,72574.0,-15.13,-47.03,-47.93,0,*5D
1483862861.18,3231,3.19,72562.0,-15.13,-47.09,-48.13,0,*51
1483862862.47,3232,3.19,72568.8,-15.13,-46.89,-47.79,0,*58
1483862863.76,3233,3.19,72570.8,-15.09,-46.89,-47.79,0,*52
1483862865.03,3234,3.19,72564.3,-15.09,-47.23,-48.07,0,*52
1483862866.29,3235,3.19,72566.5,-15.09,-47.09,-47.93,0,*59
1483862867.57,3236,3.19,72564.5,-15.09,-47.03,-47.93,0,*50
1483862868.8,3237,3.19,72568.8,-15.07,-46.75,-47.45,0,*54
1483862870.0,3238,3.19,72570.5,-15.07,-46.75,-47.57,0,*58
1483862871.24,3239,3.19,72566.8,-15.07,-46.97,-47.71,0,*51
1483862872.45,3240,3.19,72574.0,-15.07,-46.97,-47.85,0,*54
1483862873.68,3241,3.19,72566.3,-15.03,-47.71,-48.55,0,*5A
1483862874.97,3242,3.19,72574.8,-15.05,-47.45,-48.27,0,*5D
1483862876.24,3243,3.19,72576.3,-15.03,-47.37,-48.13,0,*58
1483862877.47,3244,3.19,72566.5,-15.03,-47.17,-47.93,0,*5A
1483862878.68,3245,3.19,72584.5,-15.03,-47.17,-48.07,0,*59
1483862879.9,3246,3.19,72568.3,-15.03,-47.85,-48.55,0,*56
1483862881.13,3247,3.19,72574.8,-15.01,-47.57,-48.49,0,*57
1483862882.38,3248,3.19,72570.5,-15.01,-47.65,-48.69,0,*5B
1483862883.64,3249,3.19,72570.0,-15.01,-47.79,-48.49,0,*55
1483862884.87,3250,3.19,72574.0,-15.01,-47.51,-48.49,0,*57
1483862886.13,3251,3.19,72558.8,-14.99,-47.79,-48.69,0,*5E
1483862887.39,3252,3.19,72558.0,-15.03,-47.23,-48.13,0,*5D
1483862888.62,3253,3.19,72562.3,-15.01,-47.51,-48.41,0,*5C
1483862889.89,3254,3.19,72558.3,-15.01,-46.97,-47.79,0,*54
1483862891.12,3255,3.19,72588.3,-15.01,-47.09,-47.99,0,*5D
1483862892.36,3256,3.19,72562.0,-15.01,-47.31,-48.21,0,*59
1483862893.59,3257,3.19,72562.8,-15.01,-47.17,-47.99,0,*50
1483862894.83,3258,3.19,72548.8,-14.97,-47.57,-48.55,0,*5A
1483862896.08,3259,3.19,72542.8,-15.01,-48.21,-48.91,0,*53
1483862897.31,3260,3.19,72556.3,-15.01,-47.65,-48.41,0,*5B
1483862898.54,3261,3.19,72546.3,-14.99,-47.51,-48.27,0,*5D
1483862899.77,3262,3.19,72554.3,-15.01,-47.65,-48.63,0,*59
1483862900.97,3263,3.19,72552.5,-14.99,-47.65,-48.49,0,*50
1483862902.17,3264,3.19,72558.3,-14.99,-47.51,-48.49,0,*50
1483862903.38,3265,3.19,72552.5,-14.99,-47.85,-48.83,0,*5E
1483862904.64,3266,3.19,72562.8,-14.97,-47.71,-48.55,0,*53
1483862905.92,3267,3.19,72556.0,-14.97,-47.71,-48.77,0,*52
1483862907.18,3268,3.19,72554.3,-14.97,-47.71,-48.55,0,*5D